User: anonymous   Login
Location: Newark
(49.7697°N, 2.7094°E)
Time: 00:45:42
(UTC+00:00)
Language:

XW-2D - Orbit

View from above orbital plane
View from above orbital plane
View from above satellite
View from above satellite

Ground track
Ground track

The orbit data is extracted from the following two-line orbital elements,

1 40907U 15049J   20093.79248843  .00000753  00000-0  42364-4 0  9996
2 40907  97.4761  95.9594 0012361 275.0308  81.1842 15.16210042250806
Epoch (UTC): 02 April 2020 19:01:11
Eccentricity: 0.0012361
inclination: 97.4761°
perigee height: 509 km
apogee height: 526 km
right ascension of ascending node: 95.9594°
argument of perigee: 275.0308°
revolutions per day: 15.16210042
mean anomaly at epoch: 81.1842°
orbit number at epoch: 25080

The dashed part of the orbit path shows where the satellite is in the earth's shadow,  

DLR